Regional Weather Roundup
Issued by NWS Jackson, KY

Home | Current Version | Previous Version | Graphics & Text | Print | Product List | Glossary On
Versions: 1 2 3 4 5 6 7 8 9 10 11 12 13 14 15 16 17 18 19 20 21 22 23 24 25 26 27 28 29 30 31 32 33 34 35 36 37 38 39 40 41 42 43 44 45 46 47 48 49 50
000
ASUS43 KJKL 072010
RWRJKL

EAST KENTUCKY HOURLY WEATHER ROUNDUP
NATIONAL WEATHER SERVICE JACKSON KY
300 PM EST WED DEC 07 2016

NOTE: "FAIR" INDICATES FEW OR NO CLOUDS BELOW 12,000 FEET WITH
NO SIGNIFICANT WEATHER AND/OR OBSTRUCTIONS TO VISIBILITY.

* THESE REPORTS ARE NOT UNDER NWS QUALITY CONTROL AND MAY NOT
  REPORT WEATHER SUCH AS PRECIPITATION AND FOG.

KYZ079-080-083-085-087-088-110-112-115-119-120-072100
...EASTERN KENTUCKY...

CITY           SKY/WX    TMP DP  RH WIND       PRES   REMARKS
JACKSON        MOSUNNY   47  25  42 VRB3      30.08F
LONDON         SUNNY     46  28  49 N9        30.08F
SOMERSET*      PTSUNNY   46  30  53 NE5       30.11S
MONTICELLO*    SUNNY     46  31  55 N15       30.11F
WILLIAMSBURG*  MOCLDY    45  36  70 N5        30.09S
MIDDLESBORO*   SUNNY     47  36  63 NE6       30.07S
PIKE CO APT*     N/A     42  27  54 CALM      30.08F
BIG SANDY APT* CLEAR     45  31  57 CALM      30.09F
MOREHEAD APT*  PTCLDY    46  18  31 W3        30.11F
ASHLAND*       PTSUNNY   46  27  46 CALM      30.09F
$$

KYZ035-036-041-042-044-050-067-078-099-072100
...CENTRAL KENTUCKY...

CITY           SKY/WX    TMP DP  RH WIND       PRES   REMARKS
MT STERLING*   MOSUNNY   43  21  42 CALM      30.12S
FLEMING/MASON* CLOUDY    41  24  50 NW5       30.13R
DANVILLE*      CLOUDY    43  23  45 N7        30.12S
LEXINGTON      CLOUDY    44  21  40 N7        30.11F
FRANKFORT      CLOUDY    43  26  51 NW8       30.11F
LOUISVILLE     CLOUDY    43  20  39 NW5       30.14F
LEBANON*       MOCLDY    45  21  39 CALM      30.12S
GLASGOW*       SUNNY     46  24  41 N5        30.12S
BOWLING GREEN  SUNNY     48  26  42 NE6       30.14R
$$

KYZ091>093-OHZ055-061-077-WVZ005-015-034-035-042-072100
...SOUTHERN OHIO/WEST VIRGINIA...

CITY           SKY/WX    TMP DP  RH WIND       PRES   REMARKS
COVINGTON      CLOUDY    38  22  52 W8        30.12S WCI  32
COLUMBUS       CLOUDY    37  23  56 SW9       30.10S WCI  30
DAYTON         MOSUNNY   37  22  54 SW12      30.11S WCI  29
WILMINGTON     CLOUDY    37  21  52 W8        30.10S WCI  31
HUNTINGTON     MOSUNNY   48  21  34 N3        30.09F
CHARLESTON     MOSUNNY   45  27  49 S3        30.10S
PINEVILLE*     SUNNY     47  27  44 MISG      30.11S
BECKLEY        SUNNY     44  23  43 NW7       30.04F
BLUEFIELD      SUNNY     41  29  62 CALM      30.03F
LOGAN CO APT*    N/A     45  27  49 CALM      30.07S
$$

VAZ002-007-008-TNZ017-027-036-066-071-072100
...SOUTHWEST VIRGINIA/EAST TENNESSEE...

CITY           SKY/WX    TMP DP  RH WIND       PRES   REMARKS
WISE*          SUNNY     43  32  65 NE7       30.05R
JONESVILLE*      N/A     54  36  50 CALM      30.06R
ABINGDON*      SUNNY     53  35  51 NE5       30.02R
BRISTOL        MOSUNNY   53  34  48 N8        30.02S
MORRISTOWN*    CLEAR     52  34  50 CALM      30.02R
SEVIERVILLE*   CLEAR     52  37  58 CALM      30.03R
KNOXVILLE      MOSUNNY   55  38  52 NE6       30.02S
OAK RIDGE      SUNNY     56  35  45 VRB3      30.05R
CROSSVILLE     CLOUDY    42  34  73 NE8       30.05F
NASHVILLE      PTSUNNY   48  30  49 N7        30.12S
$$

...KEY TO REMARKS...
VSB - VISIBILITY IN MILES
WCI - WIND CHILL INDEX
HX  - HEAT INDEX

$$



USA.gov is the U.S. government's official web portal to all federal, state and local government web resources and services.